Location: Beaurecueil
(43.5122°N, 5.5450°E)
Time: 17:55:43
(UTC+00:00)

CZ-2C R/B - Visible Passes

Search period start: 16 January 2021 00:00
Search period end: 26 January 2021 00:00
Orbit: 391 x 585 km, 35.0° (Epoch: 15 January)

Date Brightness Start Highest point End Pass type
(mag) Time Alt. Az. Time Alt. Az. Time Alt. Az.
17 Jan 4.1 06:29:22 10° S 06:30:27 11° SSE 06:31:30 10° SE visible
18 Jan 4.0 06:02:18 10° S 06:03:42 12° SSE 06:05:06 10° SE visible
19 Jan 3.9 05:35:17 10° S 05:36:58 12° SSE 05:38:37 10° SE visible
20 Jan 3.9 05:08:17 10° S 05:10:13 13° SSE 05:12:05 10° SE visible
21 Jan 3.8 04:42:35 13° S 04:43:26 14° SSE 04:45:31 10° SE visible
21 Jan 3.2 06:19:14 10° SW 06:22:25 22° S 06:25:27 10° ESE visible
22 Jan 3.9 04:17:27 14° SSE 04:17:27 14° SSE 04:18:54 10° SE visible
22 Jan 3.1 05:52:21 10° SW 05:55:39 23° S 05:58:48 10° ESE visible
23 Jan 4.4 03:52:14 10° SE 03:52:14 10° SE 03:52:15 10° SE visible
23 Jan 3.0 05:26:33 15° SW 05:28:52 24° S 05:32:07 10° ESE visible
24 Jan 2.9 05:01:14 23° SSW 05:02:05 24° S 05:05:25 10° ESE visible
25 Jan 3.1 04:35:53 24° SSE 04:35:53 24° SSE 04:38:42 10° ESE visible
25 Jan 3.2 06:11:10 10° WSW 06:14:20 21° SSW 06:17:23 10° SE visible
